Home   Weather   Albuquerque   Past weeks

Flag for USA Past Weather in Albuquerque, New Mexico, USA — Yesterday and Last 2 Weeks

Now
50 °F

Scattered clouds.


Feels Like: 48 °F
Forecast: 26 / 53 °F
Wind: 6 mph from Southwest

Location: Albuquerque International Airport

Current Time: Dec 10, 2016 at 3:26:25 pm

Latest Report: Dec 10, 2016 at 2:52 pm


Visibility: 10 mi

Pressure: 30.03 "Hg (25.03 "Hg at 1510m altitude)

Humidity: 44%

Dew Point: 29 °F

Location of AlbuquerqueLocation

Past Weather in Albuquerque — Graph

°F

Albuquerque Temperature Yesterday

Maximum temperature yesterday: 45 °F (at 2:52 pm)
Minimum temperature yesterday: 25 °F (at 7:52 am)
Average temperature yesterday: 34 °F

High & Low Weather Summary for the Past Weeks

 TemperatureHumidityPressure
High54 °F (Dec 5, 3:52 pm)97% (Nov 28, 9:52 pm)30.47 "Hg (Nov 28, 9:52 pm)
Low20 °F (Nov 30, 4:52 am)23% (Nov 25, 3:52 pm)29.55 "Hg (Nov 28, 2:52 pm)
Average37 °F53%30.03 "Hg
* Reported Nov 25 1:52 pm — Dec 10 1:52 pm, Albuquerque, Weather by CustomWeather, © 2016

Note: Actual official high and low records may vary slightly from our data, if they occured in-between our weather recording intervals... More about our weather records

Advertising

Albuquerque Weather History for the Previous 24 Hours

Scroll right to see more
 ConditionsComfort  
Time TempWeatherWind HumidityBarometerVisibility
1:52 pm
Sat, Dec 10
49 °FBroken clouds.6 mph48%30.08 "Hg10 mi
12:52 pm46 °FBroken clouds.7 mph54%30.13 "Hg10 mi
11:52 am44 °FPartly sunny.8 mph58%30.19 "Hg10 mi
10:52 am42 °FScattered clouds.3 mph62%30.22 "Hg10 mi
9:52 am36 °FScattered clouds.No wind67%30.28 "Hg10 mi
8:52 am35 °FPassing clouds.No wind72%30.27 "Hg10 mi
7:52 am29 °FPassing clouds.3 mph82%30.29 "Hg10 mi
6:52 am28 °FPassing clouds.3 mph81%30.30 "Hg10 mi
5:52 am28 °FClear.3 mph85%30.27 "Hg10 mi
4:52 am27 °FClear.5 mph89%30.27 "Hg10 mi
3:52 am29 °FClear.No wind82%30.28 "Hg10 mi
2:52 am33 °FPassing clouds.3 mph75%30.28 "Hg10 mi
1:52 am31 °FPassing clouds.3 mph76%30.28 "Hg10 mi
12:52 am32 °FPassing clouds.No wind73%30.28 "Hg10 mi
11:52 pm
Fri, Dec 9
32 °FPassing clouds.No wind75%30.32 "Hg10 mi
10:52 pm35 °FClear.No wind70%30.33 "Hg10 mi
9:52 pm34 °FClear.6 mph70%30.33 "Hg10 mi
8:52 pm35 °FPassing clouds.3 mph67%30.34 "Hg10 mi
7:52 pm36 °FPassing clouds.7 mph67%30.35 "Hg10 mi
6:52 pm36 °FPassing clouds.8 mph64%30.34 "Hg10 mi
5:52 pm43 °FPassing clouds.5 mph53%30.31 "Hg10 mi
4:52 pm44 °FPartly sunny.5 mph51%30.30 "Hg10 mi
3:52 pm45 °FPartly sunny.7 mph49%30.29 "Hg10 mi
Weather by CustomWeather, © 2016

See weather overviewHow to use our weather pages